Location: Gro�sch�nbrunn
(49.5760°N, 11.8868°E)
Time: 08:48:49
(UTC+00:00)

N. Korean satellite - Pass Details

Date: 02 December 2020
Orbit: 453 x 502 km, 97.2° (Epoch: 16 January)

Event Time Altitude Azimuth Distance (km) Brightness Sun altitude
Rises 15:53:13 0° 171° (S) 2,461 10.4 -6.2°
Reaches altitude 10° 15:55:14 10° 174° (S) 1,597 9.5 -6.5°
Maximum altitude 15:58:39 68° 258° (WSW) 501 6.9 -7.0°
Drops below altitude 10° 16:02:08 10° 343° (NNW) 1,633 9.2 -7.5°
Sets 16:04:13 0° 346° (NNW) 2,523 10.1 -7.8°
